Year,Month,Day,Hour,Minute,Value (Times are PST for temperature in C)
2009,10,02,00,00,10.80
2009,10,02,00,01,10.80
2009,10,02,00,02,10.80
2009,10,02,00,03,10.80
2009,10,02,00,04,10.80
2009,10,02,00,05,10.80
2009,10,02,00,06,10.80
2009,10,02,00,07,10.80
2009,10,02,00,08,10.80
2009,10,02,00,09,10.80
2009,10,02,00,10,10.80
2009,10,02,00,11,10.80
2009,10,02,00,12,10.80
2009,10,02,00,13,10.80
2009,10,02,00,14,10.70
2009,10,02,00,15,10.70
2009,10,02,00,16,10.70
2009,10,02,00,17,10.70
2009,10,02,00,18,10.70
2009,10,02,00,19,10.70
2009,10,02,00,20,10.60
2009,10,02,00,21,10.60
2009,10,02,00,22,10.60
2009,10,02,00,23,10.60
2009,10,02,00,24,10.60
2009,10,02,00,25,10.60
2009,10,02,00,26,10.50
2009,10,02,00,27,10.50
2009,10,02,00,28,10.50
2009,10,02,00,29,10.50
2009,10,02,00,30,10.50
2009,10,02,00,31,10.50
2009,10,02,00,32,10.40
2009,10,02,00,33,10.40
2009,10,02,00,34,10.40
2009,10,02,00,35,10.30
2009,10,02,00,36,10.30
2009,10,02,00,37,10.30
2009,10,02,00,38,10.20
2009,10,02,00,39,10.20
2009,10,02,00,40,10.20
2009,10,02,00,41,10.20
2009,10,02,00,42,10.10
2009,10,02,00,43,10.10
2009,10,02,00,44,10.10
2009,10,02,00,45,10.10
2009,10,02,00,46,10.10
2009,10,02,00,47,10.00
2009,10,02,00,48,10.00
2009,10,02,00,49,10.00
2009,10,02,00,50,10.00
2009,10,02,00,51,10.00
2009,10,02,00,52,10.00
2009,10,02,00,53,10.00
2009,10,02,00,54,10.00
2009,10,02,00,55,9.90
2009,10,02,00,56,9.90
2009,10,02,00,57,9.90
2009,10,02,00,58,9.90
2009,10,02,00,59,9.90
2009,10,02,01,00,9.90
2009,10,02,01,01,9.90
2009,10,02,01,02,9.90
2009,10,02,01,03,9.80
2009,10,02,01,04,9.80
2009,10,02,01,05,9.90
2009,10,02,01,06,9.90
2009,10,02,01,07,9.90
2009,10,02,01,08,9.90
2009,10,02,01,09,10.00
2009,10,02,01,10,10.00
2009,10,02,01,11,10.00
2009,10,02,01,12,10.10
2009,10,02,01,13,10.10
2009,10,02,01,14,10.10
2009,10,02,01,15,10.10
2009,10,02,01,16,10.10
2009,10,02,01,17,10.10
2009,10,02,01,18,10.00
2009,10,02,01,19,10.00
2009,10,02,01,20,10.00
2009,10,02,01,21,10.00
2009,10,02,01,22,9.90
2009,10,02,01,23,9.90
2009,10,02,01,24,9.90
2009,10,02,01,25,9.80
2009,10,02,01,26,9.80
2009,10,02,01,27,9.80
2009,10,02,01,28,9.80
2009,10,02,01,29,9.70
2009,10,02,01,30,9.70
2009,10,02,01,31,9.60
2009,10,02,01,32,9.60
2009,10,02,01,33,9.60
2009,10,02,01,34,9.60
2009,10,02,01,35,9.50
2009,10,02,01,36,9.40
2009,10,02,01,37,9.40
2009,10,02,01,38,9.40
2009,10,02,01,39,9.30
2009,10,02,01,40,9.30
2009,10,02,01,41,9.30
2009,10,02,01,42,9.20
2009,10,02,01,43,9.20
2009,10,02,01,44,9.20
2009,10,02,01,45,9.20
2009,10,02,01,46,9.30
2009,10,02,01,47,9.30
2009,10,02,01,48,9.30
2009,10,02,01,49,9.30
2009,10,02,01,50,9.30
2009,10,02,01,51,9.30
2009,10,02,01,52,9.20
2009,10,02,01,53,9.20
2009,10,02,01,54,9.20
2009,10,02,01,55,9.20
2009,10,02,01,56,9.10
2009,10,02,01,57,9.10
2009,10,02,01,58,9.10
2009,10,02,01,59,9.10
2009,10,02,02,00,9.00
2009,10,02,02,01,9.00
2009,10,02,02,02,8.90
2009,10,02,02,03,8.90
2009,10,02,02,04,8.90
2009,10,02,02,05,8.90
2009,10,02,02,06,8.90
2009,10,02,02,07,8.90
2009,10,02,02,08,8.90
2009,10,02,02,09,8.90
2009,10,02,02,10,8.80
2009,10,02,02,11,8.80
2009,10,02,02,12,8.80
2009,10,02,02,13,8.80
2009,10,02,02,14,8.70
2009,10,02,02,15,8.70
2009,10,02,02,16,8.70
2009,10,02,02,17,8.60
2009,10,02,02,18,8.60
2009,10,02,02,19,8.60
2009,10,02,02,20,8.50
2009,10,02,02,21,8.50
2009,10,02,02,22,8.50
2009,10,02,02,23,8.40
2009,10,02,02,24,8.40
2009,10,02,02,25,8.40
2009,10,02,02,26,8.40
2009,10,02,02,27,8.40
2009,10,02,02,28,8.30
2009,10,02,02,29,8.30
2009,10,02,02,30,8.30
2009,10,02,02,31,8.30
2009,10,02,02,32,8.30
2009,10,02,02,33,8.30
2009,10,02,02,34,8.30
2009,10,02,02,35,8.30
2009,10,02,02,36,8.30
2009,10,02,02,37,8.20
2009,10,02,02,38,8.20
2009,10,02,02,39,8.20
2009,10,02,02,40,8.20
2009,10,02,02,41,8.20
2009,10,02,02,42,8.20
2009,10,02,02,43,8.20
2009,10,02,02,44,8.20
2009,10,02,02,45,8.20
2009,10,02,02,46,8.20
2009,10,02,02,47,8.20
2009,10,02,02,48,8.20
2009,10,02,02,49,8.20
2009,10,02,02,50,8.20
2009,10,02,02,51,8.20
2009,10,02,02,52,8.20
2009,10,02,02,53,8.10
2009,10,02,02,54,8.10
2009,10,02,02,55,8.10
2009,10,02,02,56,8.10
2009,10,02,02,57,8.00
2009,10,02,02,58,8.00
2009,10,02,02,59,8.00
2009,10,02,03,00,7.90
2009,10,02,03,01,7.90
2009,10,02,03,02,7.90
2009,10,02,03,03,7.90
2009,10,02,03,04,7.90
2009,10,02,03,05,7.90
2009,10,02,03,06,7.90
2009,10,02,03,07,7.90
2009,10,02,03,08,7.90
2009,10,02,03,09,7.90
2009,10,02,03,10,7.90
2009,10,02,03,11,7.90
2009,10,02,03,12,7.90
2009,10,02,03,13,7.80
2009,10,02,03,14,7.80
2009,10,02,03,15,7.80
2009,10,02,03,16,7.80
2009,10,02,03,17,7.80
2009,10,02,03,18,7.80
2009,10,02,03,19,7.80
2009,10,02,03,20,7.80
2009,10,02,03,21,7.80
2009,10,02,03,22,7.80
2009,10,02,03,23,7.80
2009,10,02,03,24,7.80
2009,10,02,03,25,7.80
2009,10,02,03,26,7.80
2009,10,02,03,27,7.80
2009,10,02,03,28,7.80
2009,10,02,03,29,7.80
2009,10,02,03,31,7.80
2009,10,02,03,32,7.90
2009,10,02,03,33,7.90
2009,10,02,03,34,7.90
2009,10,02,03,35,7.90
2009,10,02,03,36,7.90
2009,10,02,03,37,7.90
2009,10,02,03,38,7.90
2009,10,02,03,39,7.90
2009,10,02,03,40,7.90
2009,10,02,03,41,7.90
2009,10,02,03,42,8.00
2009,10,02,03,43,8.00
2009,10,02,03,44,8.00
2009,10,02,03,45,8.00
2009,10,02,03,46,8.00
2009,10,02,03,47,7.90
2009,10,02,03,48,7.90
2009,10,02,03,49,7.90
2009,10,02,03,50,7.90
2009,10,02,03,51,7.90
2009,10,02,03,52,7.90
2009,10,02,03,53,7.80
2009,10,02,03,54,7.80
2009,10,02,03,55,7.80
2009,10,02,03,56,7.80
2009,10,02,03,57,7.80
2009,10,02,03,58,7.70
2009,10,02,03,59,7.70
2009,10,02,04,00,7.70
2009,10,02,04,01,7.70
2009,10,02,04,02,7.70
2009,10,02,04,03,7.70
2009,10,02,04,04,7.60
2009,10,02,04,05,7.60
2009,10,02,04,06,7.60
2009,10,02,04,07,7.60
2009,10,02,04,08,7.50
2009,10,02,04,09,7.50
2009,10,02,04,10,7.50
2009,10,02,04,11,7.40
2009,10,02,04,12,7.40
2009,10,02,04,13,7.40
2009,10,02,04,14,7.40
2009,10,02,04,15,7.30
2009,10,02,04,16,7.30
2009,10,02,04,17,7.20
2009,10,02,04,18,7.20
2009,10,02,04,19,7.20
2009,10,02,04,20,7.20
2009,10,02,04,21,7.20
2009,10,02,04,22,7.20
2009,10,02,04,23,7.20
2009,10,02,04,24,7.20
2009,10,02,04,25,7.20
2009,10,02,04,26,7.20
2009,10,02,04,27,7.20
2009,10,02,04,28,7.20
2009,10,02,04,29,7.20
2009,10,02,04,30,7.20
2009,10,02,04,31,7.20
2009,10,02,04,32,7.20
2009,10,02,04,33,7.20
2009,10,02,04,34,7.20
2009,10,02,04,35,7.20
2009,10,02,04,36,7.20
2009,10,02,04,37,7.20
2009,10,02,04,38,7.20
2009,10,02,04,39,7.20
2009,10,02,04,40,7.20
2009,10,02,04,41,7.10
2009,10,02,04,42,7.10
2009,10,02,04,43,7.10
2009,10,02,04,44,7.10
2009,10,02,04,45,7.10
2009,10,02,04,46,7.10
2009,10,02,04,47,7.10
2009,10,02,04,48,7.10
2009,10,02,04,49,7.10
2009,10,02,04,50,7.10
2009,10,02,04,51,7.10
2009,10,02,04,52,7.00
2009,10,02,04,53,7.00
2009,10,02,04,54,7.00
2009,10,02,04,55,6.90
2009,10,02,04,56,6.90
2009,10,02,04,57,6.90
2009,10,02,04,58,6.90
2009,10,02,04,59,6.90
2009,10,02,05,00,6.90
2009,10,02,05,01,6.90
2009,10,02,05,02,6.90
2009,10,02,05,03,6.90
2009,10,02,05,04,6.90
2009,10,02,05,05,6.90
2009,10,02,05,06,6.90
2009,10,02,05,07,6.90
2009,10,02,05,08,6.90
2009,10,02,05,09,6.90
2009,10,02,05,10,6.90
2009,10,02,05,11,6.90
2009,10,02,05,12,6.90
2009,10,02,05,13,6.80
2009,10,02,05,14,6.80
2009,10,02,05,15,6.80
2009,10,02,05,16,6.80
2009,10,02,05,17,6.80
2009,10,02,05,18,6.80
2009,10,02,05,19,6.90
2009,10,02,05,20,7.00
2009,10,02,05,21,7.10
2009,10,02,05,22,7.20
2009,10,02,05,23,7.20
2009,10,02,05,24,7.20
2009,10,02,05,25,7.30
2009,10,02,05,26,7.40
2009,10,02,05,27,7.50
2009,10,02,05,28,7.60
2009,10,02,05,29,7.60
2009,10,02,05,30,7.70
2009,10,02,05,31,7.70
2009,10,02,05,32,7.70
2009,10,02,05,33,7.80
2009,10,02,05,34,7.80
2009,10,02,05,35,7.80
2009,10,02,05,36,7.80
2009,10,02,05,37,7.90
2009,10,02,05,38,7.90
2009,10,02,05,39,7.90
2009,10,02,05,40,8.00
2009,10,02,05,41,8.00
2009,10,02,05,42,8.00
2009,10,02,05,43,8.00
2009,10,02,05,44,8.00
2009,10,02,05,45,8.00
2009,10,02,05,46,8.00
2009,10,02,05,47,8.00
2009,10,02,05,48,7.90
2009,10,02,05,49,7.90
2009,10,02,05,50,7.90
2009,10,02,05,51,7.90
2009,10,02,05,52,7.80
2009,10,02,05,53,7.80
2009,10,02,05,54,7.70
2009,10,02,05,55,7.70
2009,10,02,05,56,7.70
2009,10,02,05,57,7.60
2009,10,02,05,58,7.50
2009,10,02,05,59,7.50
2009,10,02,06,00,7.40
2009,10,02,06,01,7.30
2009,10,02,06,02,7.30
2009,10,02,06,03,7.20
2009,10,02,06,04,7.20
2009,10,02,06,05,7.20
2009,10,02,06,06,7.20
2009,10,02,06,07,7.10
2009,10,02,06,08,7.10
2009,10,02,06,09,7.10
2009,10,02,06,10,7.00
2009,10,02,06,11,7.00
2009,10,02,06,12,6.90
2009,10,02,06,13,6.90
2009,10,02,06,14,6.80
2009,10,02,06,15,6.70
2009,10,02,06,16,6.70
2009,10,02,06,17,6.70
2009,10,02,06,18,6.60
2009,10,02,06,19,6.60
2009,10,02,06,20,6.60
2009,10,02,06,21,6.60
2009,10,02,06,22,6.60
2009,10,02,06,23,6.50
2009,10,02,06,24,6.50
2009,10,02,06,25,6.50
2009,10,02,06,26,6.50
2009,10,02,06,27,6.40
2009,10,02,06,28,6.40
2009,10,02,06,29,6.40
2009,10,02,06,30,6.30
2009,10,02,06,31,6.30
2009,10,02,06,32,6.30
2009,10,02,06,33,6.30
2009,10,02,06,34,6.30
2009,10,02,06,35,6.30
2009,10,02,06,36,6.30
2009,10,02,06,37,6.30
2009,10,02,06,38,6.30
2009,10,02,06,39,6.30
2009,10,02,06,40,6.30
2009,10,02,06,41,6.30
2009,10,02,06,42,6.30
2009,10,02,06,43,6.30
2009,10,02,06,44,6.30
2009,10,02,06,45,6.30
2009,10,02,06,46,6.30
2009,10,02,06,47,6.30
2009,10,02,06,48,6.30
2009,10,02,06,49,6.30
2009,10,02,06,50,6.30
2009,10,02,06,51,6.30
2009,10,02,06,52,6.30
2009,10,02,06,53,6.40
2009,10,02,06,54,6.40
2009,10,02,06,55,6.40
2009,10,02,06,56,6.40
2009,10,02,06,57,6.40
2009,10,02,06,58,6.40
2009,10,02,06,59,6.40
2009,10,02,07,00,6.40
2009,10,02,07,01,6.40
2009,10,02,07,02,6.50
2009,10,02,07,03,6.50
2009,10,02,07,04,6.50
2009,10,02,07,05,6.50
2009,10,02,07,06,6.50
2009,10,02,07,07,6.50
2009,10,02,07,08,6.50
2009,10,02,07,09,6.50
2009,10,02,07,10,6.60
2009,10,02,07,11,6.60
2009,10,02,07,12,6.60
2009,10,02,07,13,6.60
2009,10,02,07,14,6.60
2009,10,02,07,15,6.60
2009,10,02,07,16,6.60
2009,10,02,07,17,6.60
2009,10,02,07,18,6.60
2009,10,02,07,19,6.70
2009,10,02,07,20,6.70
2009,10,02,07,21,6.70
2009,10,02,07,22,6.70
2009,10,02,07,23,6.70
2009,10,02,07,24,6.70
2009,10,02,07,25,6.70
2009,10,02,07,26,6.70
2009,10,02,07,27,6.70
2009,10,02,07,28,6.70
2009,10,02,07,29,6.70
2009,10,02,07,30,6.70
2009,10,02,07,31,6.70
2009,10,02,07,32,6.70
2009,10,02,07,33,6.70
2009,10,02,07,34,6.70
2009,10,02,07,35,6.70
2009,10,02,07,36,6.70
2009,10,02,07,37,6.70
2009,10,02,07,38,6.70
2009,10,02,07,39,6.60
2009,10,02,07,40,6.60
2009,10,02,07,41,6.60
2009,10,02,07,42,6.60
2009,10,02,07,43,6.60
2009,10,02,07,44,6.60
2009,10,02,07,45,6.70
2009,10,02,07,46,6.70
2009,10,02,07,47,6.70
2009,10,02,07,48,6.70
2009,10,02,07,49,6.70
2009,10,02,07,50,6.70
2009,10,02,07,51,6.70
2009,10,02,07,52,6.70
2009,10,02,07,53,6.70
2009,10,02,07,54,6.70
2009,10,02,07,55,6.70
2009,10,02,07,56,6.70
2009,10,02,07,57,6.70
2009,10,02,07,58,6.70
2009,10,02,07,59,6.70
2009,10,02,08,00,6.80
2009,10,02,08,01,6.80
2009,10,02,08,02,6.80
2009,10,02,08,03,6.80
2009,10,02,08,04,6.80
2009,10,02,08,05,6.80
2009,10,02,08,06,6.80
2009,10,02,08,07,6.80
2009,10,02,08,08,6.80
2009,10,02,08,09,6.80
2009,10,02,08,10,6.80
2009,10,02,08,11,6.80
2009,10,02,08,12,6.80
2009,10,02,08,13,6.90
2009,10,02,08,14,6.90
2009,10,02,08,15,6.90
2009,10,02,08,16,6.90
2009,10,02,08,17,6.90
2009,10,02,08,18,6.90
2009,10,02,08,19,7.00
2009,10,02,08,20,7.00
2009,10,02,08,21,7.00
2009,10,02,08,22,7.00
2009,10,02,08,23,7.10
2009,10,02,08,24,7.10
2009,10,02,08,25,7.10
2009,10,02,08,26,7.20
2009,10,02,08,27,7.20
2009,10,02,08,28,7.20
2009,10,02,08,29,7.20
2009,10,02,08,30,7.20
2009,10,02,08,31,7.20
2009,10,02,08,32,7.30
2009,10,02,08,33,7.30
2009,10,02,08,34,7.30
2009,10,02,08,35,7.30
2009,10,02,08,36,7.30
2009,10,02,08,37,7.30
2009,10,02,08,38,7.30
2009,10,02,08,39,7.30
2009,10,02,08,40,7.40
2009,10,02,08,41,7.40
2009,10,02,08,42,7.40
2009,10,02,08,43,7.40
2009,10,02,08,44,7.40
2009,10,02,08,45,7.40
2009,10,02,08,46,7.40
2009,10,02,08,47,7.50
2009,10,02,08,48,7.50
2009,10,02,08,49,7.50
2009,10,02,08,50,7.60
2009,10,02,08,51,7.60
2009,10,02,08,52,7.60
2009,10,02,08,53,7.60
2009,10,02,08,54,7.60
2009,10,02,08,55,7.70
2009,10,02,08,56,7.70
2009,10,02,08,57,7.70
2009,10,02,08,58,7.80
2009,10,02,08,59,7.80
2009,10,02,09,00,7.90
2009,10,02,09,01,7.90
2009,10,02,09,02,8.00
2009,10,02,09,03,8.00
2009,10,02,09,04,8.10
2009,10,02,09,05,8.20
2009,10,02,09,06,8.20
2009,10,02,09,07,8.30
2009,10,02,09,08,8.40
2009,10,02,09,09,8.50
2009,10,02,09,10,8.60
2009,10,02,09,11,8.70
2009,10,02,09,12,8.80
2009,10,02,09,13,9.00
2009,10,02,09,14,9.10
2009,10,02,09,15,9.20
2009,10,02,09,16,9.40
2009,10,02,09,17,9.50
2009,10,02,09,18,9.60
2009,10,02,09,19,9.70
2009,10,02,09,20,9.80
2009,10,02,09,21,9.90
2009,10,02,09,22,10.00
2009,10,02,09,23,10.10
2009,10,02,09,24,10.20
2009,10,02,09,25,10.30
2009,10,02,09,26,10.40
2009,10,02,09,27,10.50
2009,10,02,09,28,10.60
2009,10,02,09,29,10.70
2009,10,02,09,30,10.70
2009,10,02,09,31,10.80
2009,10,02,09,32,10.80
2009,10,02,09,33,10.90
2009,10,02,09,34,10.90
2009,10,02,09,35,11.00
2009,10,02,09,36,11.00
2009,10,02,09,37,11.10
2009,10,02,09,38,11.20
2009,10,02,09,39,11.20
2009,10,02,09,40,11.20
2009,10,02,09,41,11.20
2009,10,02,09,42,11.20
2009,10,02,09,43,11.30
2009,10,02,09,44,11.40
2009,10,02,09,45,11.50
2009,10,02,09,46,11.50
2009,10,02,09,47,11.50
2009,10,02,09,48,11.50
2009,10,02,09,49,11.60
2009,10,02,09,50,11.60
2009,10,02,09,51,11.60
2009,10,02,09,52,11.60
2009,10,02,09,53,11.60
2009,10,02,09,54,11.60
2009,10,02,09,55,11.70
2009,10,02,09,56,11.70
2009,10,02,09,57,11.80
2009,10,02,09,58,11.80
2009,10,02,09,59,11.90
2009,10,02,10,00,11.90
2009,10,02,10,01,12.00
2009,10,02,10,02,12.00
2009,10,02,10,03,12.10
2009,10,02,10,04,12.10
2009,10,02,10,05,12.20
2009,10,02,10,06,12.20
2009,10,02,10,07,12.20
2009,10,02,10,08,12.30
2009,10,02,10,09,12.30
2009,10,02,10,10,12.30
2009,10,02,10,11,12.30
2009,10,02,10,12,12.30
2009,10,02,10,13,12.30
2009,10,02,10,14,12.30
2009,10,02,10,15,12.40
2009,10,02,10,16,12.40
2009,10,02,10,17,12.40
2009,10,02,10,18,12.40
2009,10,02,10,19,12.50
2009,10,02,10,20,12.50
2009,10,02,10,21,12.60
2009,10,02,10,22,12.60
2009,10,02,10,23,12.60
2009,10,02,10,24,12.60
2009,10,02,10,25,12.70
2009,10,02,10,26,12.60
2009,10,02,10,27,12.60
2009,10,02,10,28,12.70
2009,10,02,10,29,12.70
2009,10,02,10,30,12.80
2009,10,02,10,31,12.80
2009,10,02,10,32,12.90
2009,10,02,10,33,13.10
2009,10,02,10,34,13.20
2009,10,02,10,35,13.20
2009,10,02,10,36,13.10
2009,10,02,10,37,13.10
2009,10,02,10,38,13.10
2009,10,02,10,39,13.00
2009,10,02,10,40,13.00
2009,10,02,10,41,12.90
2009,10,02,10,42,12.90
2009,10,02,10,43,12.80
2009,10,02,10,44,12.80
2009,10,02,10,45,12.80
2009,10,02,10,46,12.70
2009,10,02,10,47,12.70
2009,10,02,10,48,12.70
2009,10,02,10,49,12.70
2009,10,02,10,50,12.70
2009,10,02,10,51,12.60
2009,10,02,10,52,12.60
2009,10,02,10,53,12.60
2009,10,02,10,54,12.60
2009,10,02,10,55,12.60
2009,10,02,10,56,12.60
2009,10,02,10,57,12.60
2009,10,02,10,58,12.60
2009,10,02,10,59,12.60
2009,10,02,11,00,12.60
2009,10,02,11,01,12.60
2009,10,02,11,02,12.60
2009,10,02,11,03,12.60
2009,10,02,11,04,12.60
2009,10,02,11,05,12.60
2009,10,02,11,06,12.60
2009,10,02,11,07,12.60
2009,10,02,11,08,12.70
2009,10,02,11,09,12.70
2009,10,02,11,10,12.70
2009,10,02,11,11,12.70
2009,10,02,11,12,12.70
2009,10,02,11,13,12.70
2009,10,02,11,14,12.70
2009,10,02,11,15,12.70
2009,10,02,11,16,12.70
2009,10,02,11,17,12.70
2009,10,02,11,18,12.80
2009,10,02,11,19,12.80
2009,10,02,11,20,12.80
2009,10,02,11,21,12.80
2009,10,02,11,22,12.80
2009,10,02,11,23,12.80
2009,10,02,11,24,12.80
2009,10,02,11,25,12.70
2009,10,02,11,26,12.70
2009,10,02,11,27,12.70
2009,10,02,11,28,12.70
2009,10,02,11,29,12.70
2009,10,02,11,30,12.60
2009,10,02,11,31,12.60
2009,10,02,11,32,12.60
2009,10,02,11,33,12.50
2009,10,02,11,34,12.50
2009,10,02,11,35,12.50
2009,10,02,11,36,12.40
2009,10,02,11,37,12.40
2009,10,02,11,38,12.40
2009,10,02,11,39,12.40
2009,10,02,11,40,12.30
2009,10,02,11,41,12.30
2009,10,02,11,42,12.30
2009,10,02,11,43,12.30
2009,10,02,11,44,12.30
2009,10,02,11,45,12.30
2009,10,02,11,46,12.30
2009,10,02,11,47,12.30
2009,10,02,11,48,12.30
2009,10,02,11,49,12.20
2009,10,02,11,50,12.20
2009,10,02,11,51,12.20
2009,10,02,11,52,12.20
2009,10,02,11,53,12.10
2009,10,02,11,54,12.10
2009,10,02,11,55,12.10
2009,10,02,11,56,12.10
2009,10,02,11,57,12.00
2009,10,02,11,58,12.00
2009,10,02,11,59,11.90
2009,10,02,12,00,11.90
2009,10,02,12,01,11.80
2009,10,02,12,02,11.80
2009,10,02,12,03,11.80
2009,10,02,12,04,11.70
2009,10,02,12,05,11.70
2009,10,02,12,06,11.70
2009,10,02,12,07,11.70
2009,10,02,12,08,11.70
2009,10,02,12,09,11.70
2009,10,02,12,10,11.70
2009,10,02,12,11,11.70
2009,10,02,12,12,11.70
2009,10,02,12,13,11.70
2009,10,02,12,14,11.70
2009,10,02,12,15,11.70
2009,10,02,12,16,11.70
2009,10,02,12,17,11.70
2009,10,02,12,18,11.70
2009,10,02,12,19,11.70
2009,10,02,12,20,11.70
2009,10,02,12,21,11.70
2009,10,02,12,22,11.60
2009,10,02,12,23,11.60
2009,10,02,12,24,11.60
2009,10,02,12,25,11.60
2009,10,02,12,26,11.60
2009,10,02,12,27,11.60
2009,10,02,12,28,11.60
2009,10,02,12,29,11.60
2009,10,02,12,30,11.70
2009,10,02,12,31,11.70
2009,10,02,12,32,11.70
2009,10,02,12,33,11.70
2009,10,02,12,34,11.70
2009,10,02,12,35,11.80
2009,10,02,12,36,11.80
2009,10,02,12,37,11.80
2009,10,02,12,38,11.80
2009,10,02,12,39,11.90
2009,10,02,12,40,11.90
2009,10,02,12,41,11.90
2009,10,02,12,42,12.00
2009,10,02,12,43,12.00
2009,10,02,12,44,12.00
2009,10,02,12,45,12.00
2009,10,02,12,46,12.00
2009,10,02,12,47,12.00
2009,10,02,12,48,12.00
2009,10,02,12,49,11.90
2009,10,02,12,50,12.00
2009,10,02,12,51,12.00
2009,10,02,12,52,12.00
2009,10,02,12,53,12.10
2009,10,02,12,54,12.10
2009,10,02,12,55,12.20
2009,10,02,12,56,12.20
2009,10,02,12,57,12.20
2009,10,02,12,58,12.30
2009,10,02,12,59,12.30
2009,10,02,13,00,12.40
2009,10,02,13,01,12.40
2009,10,02,13,02,12.40
2009,10,02,13,03,12.40
2009,10,02,13,04,12.50
2009,10,02,13,05,12.50
2009,10,02,13,06,12.50
2009,10,02,13,07,12.60
2009,10,02,13,08,12.60
2009,10,02,13,09,12.70
2009,10,02,13,10,12.70
2009,10,02,13,11,12.80
2009,10,02,13,12,12.80
2009,10,02,13,13,12.80
2009,10,02,13,14,12.80
2009,10,02,13,15,12.80
2009,10,02,13,16,12.80
2009,10,02,13,17,12.80
2009,10,02,13,18,12.80
2009,10,02,13,19,12.70
2009,10,02,13,20,12.70
2009,10,02,13,21,12.70
2009,10,02,13,22,12.70
2009,10,02,13,23,12.70
2009,10,02,13,24,12.70
2009,10,02,13,25,12.70
2009,10,02,13,26,12.60
2009,10,02,13,27,12.60
2009,10,02,13,28,12.60
2009,10,02,13,29,12.60
2009,10,02,13,30,12.60
2009,10,02,13,31,12.60
2009,10,02,13,32,12.60
2009,10,02,13,33,12.60
2009,10,02,13,34,12.60
2009,10,02,13,35,12.60
2009,10,02,13,36,12.60
2009,10,02,13,37,12.60
2009,10,02,13,38,12.60
2009,10,02,13,39,12.70
2009,10,02,13,40,12.70
2009,10,02,13,41,12.70
2009,10,02,13,42,12.70
2009,10,02,13,43,12.70
2009,10,02,13,44,12.80
2009,10,02,13,45,12.80
2009,10,02,13,46,12.80
2009,10,02,13,47,12.90
2009,10,02,13,48,12.90
2009,10,02,13,49,12.90
2009,10,02,13,50,12.90
2009,10,02,13,51,12.90
2009,10,02,13,52,12.90
2009,10,02,13,53,12.90
2009,10,02,13,54,12.90
2009,10,02,13,55,13.00
2009,10,02,13,56,13.10
2009,10,02,13,57,13.10
2009,10,02,13,58,13.10
2009,10,02,13,59,13.20
2009,10,02,14,00,13.20
2009,10,02,14,01,13.20
2009,10,02,14,02,13.20
2009,10,02,14,03,13.20
2009,10,02,14,04,13.20
2009,10,02,14,05,13.30
2009,10,02,14,06,13.30
2009,10,02,14,07,13.30
2009,10,02,14,08,13.30
2009,10,02,14,09,13.40
2009,10,02,14,10,13.40
2009,10,02,14,11,13.40
2009,10,02,14,12,13.40
2009,10,02,14,13,13.40
2009,10,02,14,14,13.50
2009,10,02,14,15,13.50
2009,10,02,14,16,13.60
2009,10,02,14,17,13.60
2009,10,02,14,18,13.70
2009,10,02,14,19,13.70
2009,10,02,14,20,13.80
2009,10,02,14,21,13.80
2009,10,02,14,22,13.80
2009,10,02,14,23,13.80
2009,10,02,14,24,13.90
2009,10,02,14,25,13.90
2009,10,02,14,26,13.90
2009,10,02,14,27,13.80
2009,10,02,14,28,13.80
2009,10,02,14,29,13.90
2009,10,02,14,30,13.80
2009,10,02,14,31,13.80
2009,10,02,14,32,13.80
2009,10,02,14,33,13.80
2009,10,02,14,34,13.80
2009,10,02,14,35,13.80
2009,10,02,14,36,13.80
2009,10,02,14,37,13.80
2009,10,02,14,38,13.90
2009,10,02,14,39,13.90
2009,10,02,14,40,13.90
2009,10,02,14,41,13.90
2009,10,02,14,42,13.90
2009,10,02,14,43,13.90
2009,10,02,14,44,13.90
2009,10,02,14,45,13.90
2009,10,02,14,46,13.90
2009,10,02,14,47,13.90
2009,10,02,14,48,13.90
2009,10,02,14,49,13.90
2009,10,02,14,50,13.90
2009,10,02,14,51,13.80
2009,10,02,14,52,13.80
2009,10,02,14,53,13.80
2009,10,02,14,54,13.70
2009,10,02,14,55,13.60
2009,10,02,14,56,13.60
2009,10,02,14,57,13.50
2009,10,02,14,58,13.40
2009,10,02,14,59,13.40
2009,10,02,15,00,13.30
2009,10,02,15,01,13.30
2009,10,02,15,02,13.20
2009,10,02,15,03,13.20
2009,10,02,15,04,13.10
2009,10,02,15,05,13.10
2009,10,02,15,06,13.00
2009,10,02,15,07,13.00
2009,10,02,15,08,13.00
2009,10,02,15,09,13.00
2009,10,02,15,10,13.00
2009,10,02,15,11,13.00
2009,10,02,15,12,13.00
2009,10,02,15,13,13.10
2009,10,02,15,14,13.10
2009,10,02,15,15,13.10
2009,10,02,15,16,13.10
2009,10,02,15,17,13.10
2009,10,02,15,18,13.10
2009,10,02,15,19,13.10
2009,10,02,15,20,13.10
2009,10,02,15,21,13.10
2009,10,02,15,22,13.10
2009,10,02,15,23,13.10
2009,10,02,15,24,13.10
2009,10,02,15,25,13.10
2009,10,02,15,26,13.10
2009,10,02,15,27,13.00
2009,10,02,15,28,13.00
2009,10,02,15,29,13.00
2009,10,02,15,30,13.00
2009,10,02,15,31,13.00
2009,10,02,15,32,13.00
2009,10,02,15,33,13.00
2009,10,02,15,34,13.00
2009,10,02,15,35,13.00
2009,10,02,15,36,13.00
2009,10,02,15,37,13.00
2009,10,02,15,38,13.00
2009,10,02,15,39,13.00
2009,10,02,15,40,13.00
2009,10,02,15,41,13.10
2009,10,02,15,42,13.10
2009,10,02,15,43,13.10
2009,10,02,15,44,13.10
2009,10,02,15,45,13.10
2009,10,02,15,46,13.10
2009,10,02,15,47,13.10
2009,10,02,15,48,13.10
2009,10,02,15,49,13.10
2009,10,02,15,50,13.10
2009,10,02,15,51,13.10
2009,10,02,15,52,13.10
2009,10,02,15,53,13.10
2009,10,02,15,54,13.10
2009,10,02,15,55,13.10
2009,10,02,15,56,13.10
2009,10,02,15,57,13.10
2009,10,02,15,58,13.20
2009,10,02,15,59,13.20
2009,10,02,16,00,13.20
2009,10,02,16,01,13.20
2009,10,02,16,02,13.20
2009,10,02,16,03,13.20
2009,10,02,16,04,13.20
2009,10,02,16,05,13.20
2009,10,02,16,06,13.30
2009,10,02,16,07,13.30
2009,10,02,16,08,13.40
2009,10,02,16,09,13.50
2009,10,02,16,10,13.50
2009,10,02,16,11,13.60
2009,10,02,16,12,13.70
2009,10,02,16,13,13.80
2009,10,02,16,14,13.80
2009,10,02,16,15,13.90
2009,10,02,16,16,14.00
2009,10,02,16,17,14.10
2009,10,02,16,18,14.10
2009,10,02,16,19,14.10
2009,10,02,16,20,14.10
2009,10,02,16,21,14.10
2009,10,02,16,22,14.10
2009,10,02,16,23,14.00
2009,10,02,16,24,14.00
2009,10,02,16,25,14.00
2009,10,02,16,26,14.00
2009,10,02,16,27,14.00
2009,10,02,16,28,14.00
2009,10,02,16,29,14.10
2009,10,02,16,30,14.10
2009,10,02,16,31,14.20
2009,10,02,16,32,14.20
2009,10,02,16,33,14.20
2009,10,02,16,34,14.20
2009,10,02,16,35,14.20
2009,10,02,16,36,14.20
2009,10,02,16,37,14.30
2009,10,02,16,38,14.30
2009,10,02,16,39,14.30
2009,10,02,16,40,14.20
2009,10,02,16,41,14.30
2009,10,02,16,42,14.30
2009,10,02,16,43,14.30
2009,10,02,16,44,14.20
2009,10,02,16,45,14.20
2009,10,02,16,46,14.10
2009,10,02,16,47,14.10
2009,10,02,16,48,14.10
2009,10,02,16,49,14.00
2009,10,02,16,50,13.90
2009,10,02,16,51,13.80
2009,10,02,16,52,13.70
2009,10,02,16,53,13.60
2009,10,02,16,54,13.50
2009,10,02,16,55,13.50
2009,10,02,16,56,13.40
2009,10,02,16,57,13.40
2009,10,02,16,58,13.40
2009,10,02,16,59,13.40
2009,10,02,17,00,13.30
2009,10,02,17,01,13.30
2009,10,02,17,02,13.20
2009,10,02,17,03,13.10
2009,10,02,17,04,13.10
2009,10,02,17,05,13.10
2009,10,02,17,06,13.00
2009,10,02,17,07,13.00
2009,10,02,17,08,13.00
2009,10,02,17,09,12.90
2009,10,02,17,10,12.90
2009,10,02,17,11,12.80
2009,10,02,17,12,12.80
2009,10,02,17,13,12.80
2009,10,02,17,14,12.70
2009,10,02,17,15,12.70
2009,10,02,17,16,12.70
2009,10,02,17,17,12.70
2009,10,02,17,18,12.70
2009,10,02,17,19,12.70
2009,10,02,17,20,12.70
2009,10,02,17,21,12.70
2009,10,02,17,22,12.70
2009,10,02,17,23,12.70
2009,10,02,17,24,12.80
2009,10,02,17,25,12.80
2009,10,02,17,26,12.80
2009,10,02,17,27,12.80
2009,10,02,17,28,12.80
2009,10,02,17,29,12.70
2009,10,02,17,30,12.70
2009,10,02,17,31,12.70
2009,10,02,17,32,12.60
2009,10,02,17,33,12.60
2009,10,02,17,34,12.50
2009,10,02,17,35,12.40
2009,10,02,17,36,12.30
2009,10,02,17,37,12.30
2009,10,02,17,38,12.20
2009,10,02,17,39,12.20
2009,10,02,17,40,12.10
2009,10,02,17,41,12.10